Erie, PA

2:40 AM EST on November 15, 2019 (GMT -0500)
Erie International

Weather History for KERI - September, 2019

Change the Weather History Date:

Thursday, September 12, 2019

  Actual Average Record
Temperature  
Mean Temperature 68 °F 65 °F  
Max Temperature 72 °F 73 °F 88 °F (1931)
Min Temperature 63 °F 57 °F 41 °F (1958)
Degree Days  
Heating Degree Days 0 2  
Month to date heating degree days 8 18  
Since 1 July heating degree days 9 36  
Cooling Degree Days 2 3  
Month to date cooling degree days 49 42  
Year to date cooling degree days 739 600  
Growing Degree Days 18 (Base 50)    
Moisture  
Dew Point 63 °F    
Average Humidity 85    
Maximum Humidity 90    
Minimum Humidity 76    
Precipitation  
Precipitation 0.27 in 0.15 in 2.54 in (2015)
Month to date precipitation 2.65 1.65  
Year to date precipitation 28.97 27.48  
Snow  
Snow 0.00 in 0.00 in - ()
Month to date snowfall 0.0 0.0  
Since 1 July snowfall 0.0 0.0  
Since 1 September snowfall 0.0 0.0  
Snow Depth 0.00 in    
Sea Level Pressure  
Sea Level Pressure 30.14 in    
Wind  
Wind Speed 8 mph ()    
Max Wind Speed 22 mph    
Max Gust Speed 28 mph    
Visibility 8.0 miles    
Events Rain    
T = Trace of Precipitation, MM = Missing Value Source: Averaged Metar Reports

Daily Weather History Graph

Daily Weather History Graph

Search for Another Location

Airport or City:

Astronomy

Sep. 12, 2019 Rise Set
Actual Time 6:57 AM EDT 7:35 PM EDT
Civil Twilight 6:29 AM EDT 8:04 PM EDT
Nautical Twilight 5:55 AM EDT 8:37 PM EDT
Astronomical Twilight 5:21 AM EDT 9:11 PM EDT
Moon 7:21 PM EDT (9/12) 5:12 AM EDT (9/12)
Length of Visible Light 13h 34m
Length of Day
12h 38m
Waxing Gibbous, 98% of the Moon is Illuminated
Sep 12
Waxing Gibbous
Sep 14
Full
Sep 21
Last Quarter
Sep 28
New
Oct 5
First Quarter

Hourly Weather History & Observations

Time (EDT) Temp. Dew Point Humidity Pressure Visibility Wind Dir Wind Speed Gust Speed Precip Events Conditions
12:51 AM 71.1 °F 66.9 °F 87% 30.04 in 10.0 mi South 4.6 mph - N/A   Clear
1:51 AM 72.0 °F 68.0 °F 87% 30.05 in 10.0 mi SW 3.5 mph - 0.00 in Rain Light Rain
2:40 AM 72.0 °F 68.0 °F 87% 30.04 in 8.0 mi SW 5.8 mph - 0.07 in Rain Light Rain
2:51 AM 72.0 °F 68.0 °F 87% 30.03 in 9.0 mi SSW 6.9 mph - 0.07 in Rain Light Rain
3:27 AM 72.0 °F 68.0 °F 87% 30.05 in 10.0 mi SSW 6.9 mph - 0.00 in   Mostly Cloudy
3:37 AM 71.1 °F 68.0 °F 90% 30.05 in 10.0 mi SSW 8.1 mph - 0.00 in   Mostly Cloudy
3:51 AM 71.1 °F 66.9 °F 87% 30.04 in 10.0 mi SW 6.9 mph - 0.00 in   Overcast
3:57 AM 71.1 °F 66.9 °F 87% 30.06 in 10.0 mi WSW 4.6 mph - N/A   Overcast
4:51 AM 71.1 °F 66.9 °F 87% 30.04 in 9.0 mi South 6.9 mph - 0.01 in Rain Light Rain
6:22 AM 71.1 °F 66.9 °F 87% 30.10 in 10.0 mi WSW 5.8 mph - N/A   Overcast
6:51 AM 71.1 °F 66.9 °F 87% 30.09 in 10.0 mi SW 6.9 mph - 0.00 in   Overcast
7:25 AM 72.0 °F 68.0 °F 87% 30.11 in 1.8 mi WSW 6.9 mph - 0.03 in Rain Rain
7:31 AM 71.1 °F 68.0 °F 90% 30.11 in 2.0 mi WSW 4.6 mph - 0.05 in Rain Rain
7:38 AM 71.1 °F 66.9 °F 87% 30.12 in 1.0 mi NNW 6.9 mph - 0.11 in Rain Heavy Rain
7:51 AM 70.0 °F 66.9 °F 90% 30.12 in 1.5 mi NNE 10.4 mph - 0.15 in Rain Heavy Rain
8:04 AM 69.1 °F 66.0 °F 90% 30.13 in 2.5 mi NNE 10.4 mph - 0.03 in Rain Light Rain
8:11 AM 69.1 °F 66.0 °F 90% 30.12 in 6.0 mi NE 11.5 mph - 0.04 in Rain Rain
8:36 AM 68.0 °F 64.9 °F 90% 30.13 in 10.0 mi NE 6.9 mph - 0.04 in   Overcast
8:51 AM 68.0 °F 64.9 °F 90% 30.13 in 10.0 mi North 6.9 mph - 0.04 in   Overcast
9:51 AM 68.0 °F 64.0 °F 87% 30.15 in 10.0 mi NE 11.5 mph - N/A   Overcast
10:51 AM 66.9 °F 63.0 °F 87% 30.15 in 10.0 mi NE 15.0 mph - N/A   Overcast
11:51 AM 66.0 °F 62.1 °F 87% 30.17 in 8.0 mi NE 9.2 mph - N/A   Overcast
12:29 PM 66.0 °F 62.1 °F 87% 30.18 in 2.5 mi NE 16.1 mph - N/A   Overcast
12:51 PM 66.0 °F 62.1 °F 87% 30.18 in 2.0 mi NE 12.7 mph - N/A   Overcast
1:07 PM 64.9 °F 62.1 °F 90% 30.18 in 2.5 mi NE 16.1 mph - 0.00 in   Overcast
1:22 PM 66.0 °F 62.1 °F 87% 30.19 in 3.0 mi NE 13.8 mph - 0.00 in   Overcast
1:51 PM 66.0 °F 61.0 °F 84% 30.18 in 10.0 mi NE 13.8 mph 21.9 mph 0.00 in   Overcast
2:37 PM 66.9 °F 61.0 °F 81% 30.19 in 10.0 mi NNE 12.7 mph - N/A   Overcast
2:51 PM 68.0 °F 61.0 °F 78% 30.18 in 10.0 mi NNE 13.8 mph - N/A   Overcast
3:51 PM 68.0 °F 61.0 °F 78% 30.19 in 10.0 mi NE 9.2 mph - N/A   Overcast
4:51 PM 68.0 °F 61.0 °F 78% 30.19 in 10.0 mi NE 16.1 mph - N/A   Overcast
5:51 PM 66.0 °F 60.1 °F 81% 30.21 in 10.0 mi NE 16.1 mph - N/A   Overcast
6:51 PM 66.0 °F 60.1 °F 81% 30.20 in 10.0 mi NE 19.6 mph 26.5 mph N/A   Overcast
7:51 PM 64.9 °F 59.0 °F 81% 30.21 in 10.0 mi ENE 13.8 mph - N/A   Overcast
8:25 PM 64.0 °F 59.0 °F 84% 30.22 in 10.0 mi ENE 12.7 mph - N/A   Scattered Clouds
8:41 PM 64.0 °F 59.0 °F 84% 30.22 in 10.0 mi ENE 12.7 mph - N/A   Mostly Cloudy
8:51 PM 64.0 °F 57.9 °F 80% 30.23 in 10.0 mi ENE 16.1 mph - N/A   Mostly Cloudy
9:17 PM 64.0 °F 57.9 °F 80% 30.23 in 10.0 mi ENE 11.5 mph - N/A   Mostly Cloudy
9:51 PM 64.0 °F 57.9 °F 80% 30.23 in 10.0 mi ENE 10.4 mph - N/A   Overcast
10:51 PM 64.0 °F 57.9 °F 80% 30.24 in 10.0 mi NE 9.2 mph - N/A   Overcast
11:51 PM 64.0 °F 57.0 °F 78% 30.25 in 10.0 mi ENE 8.1 mph - N/A   Overcast